#timestamp,LO_Frequency,Hit 
1498852815.4,286047100.4,N
1498852835.2,286047100.3,N
1498852855.0,286047098.1,N
1498852855.9,286047098.1,N
1498852875.8,286047100.4,N
1498852895.6,286047102.0,N
1498852915.4,286047101.7,N
1498852935.3,286047101.5,N
1498852955.1,286047099.0,N
1498852956.0,286047099.0,N
1498852975.8,286047101.7,N
1498852995.7,286047101.4,N
1498853015.5,286047100.5,N
1498853035.3,286047100.9,N
1498853055.1,286047103.5,N
1498853075.9,286047103.0,N
1498853095.7,286047102.6,N
1498853115.5,286047102.8,N
1498853135.4,286047105.2,N
1498853155.2,286047102.9,N
1498853175.0,286047103.6,N
1498853175.9,286047103.6,N
1498853195.8,286047103.0,N
1498853215.6,286047100.6,N
1498853235.4,286047102.6,N
1498853255.3,286047103.2,N
1498853275.1,286047101.5,N
1498853276.0,286047101.5,N
1498853295.8,286047103.2,N
1498853315.7,286047103.1,N
1498853335.5,286047102.5,N
1498853355.3,286047104.6,N
1498853375.2,286047102.5,N
1498853395.9,286047104.6,N
1498853415.7,286047104.1,N
1498853435.5,286047106.6,N
1498853455.4,286047108.3,N
1498853475.2,286047106.5,N
1498853495.0,286047105.8,N
1498853495.9,286047105.8,N
1498853515.8,286047106.4,N
1498853535.6,286047107.4,N
1498853555.4,286047107.7,N
1498853575.3,286047106.1,N
1498853595.1,286047107.4,N
1498853596.0,286047107.4,N
1498853615.8,286047105.3,N
1498853635.7,286047105.3,N
1498853655.5,286047107.4,N
1498853675.3,286047107.9,N
1498853695.1,286047105.7,N
1498853715.9,286047105.6,N
1498853735.7,286047105.6,N
1498853755.5,286047107.5,N
1498853775.4,286047107.4,N
1498853795.2,286047107.0,N
1498853815.0,286047109.7,N
1498853815.9,286047109.7,N
1498853835.8,286047107.2,N
1498853855.6,286047107.0,N
1498853875.4,286047107.1,N
1498853895.3,286047105.6,N
1498853915.1,286047104.6,N
1498853916.0,286047104.6,N
1498853935.8,286047106.1,N
1498853955.7,286047107.8,N
1498853975.5,286047107.3,N
1498853995.3,286047109.9,N
1498854015.1,286047110.4,N
1498854035.9,286047111.1,N
1498854055.7,286047112.6,N
1498854075.5,286047110.5,N
1498854095.4,286047111.1,N
1498854115.2,286047111.4,N
1498854135.0,286047108.9,N
1498854135.9,286047108.9,N
1498854155.8,286047112.3,N
1498854175.6,286047112.3,N
1498854195.4,286047112.6,N
1498854215.3,286047112.9,N
1498854235.1,286047112.8,N
1498854236.0,286047112.8,N
1498854255.8,286047112.0,N
1498854275.7,286047112.2,N
1498854295.5,286047110.2,N
1498854315.3,286047110.6,N
1498854335.2,286047110.3,N
1498854355.9,286047112.6,N
1498854375.7,286047112.0,N
1498854395.5,286047110.6,N
1498854415.4,286047112.2,N
1498854435.2,286047111.0,N
1498854455.0,286047112.1,N
1498854455.9,286047112.1,N
1498854475.8,286047114.6,N
1498854495.6,286047113.2,N
1498854515.4,286047111.8,N
1498854535.3,286047114.5,N
1498854555.1,286047114.8,N
1498854575.8,286047112.3,N
1498854595.7,286047112.3,N
1498854615.5,286047114.8,N
1498854635.3,286047113.8,N
1498854655.2,286047115.4,N
1498854675.9,286047117.3,N
1498854695.7,286047117.6,N
1498854715.6,286047114.9,N
1498854735.4,286047118.0,N
1498854755.2,286047118.0,N
1498854775.0,286047117.1,N
1498854776.0,286047117.1,N
1498854795.8,286047117.0,N
1498854815.6,286047116.5,N
1498854835.4,286047117.1,N
1498854855.3,286047118.7,N
1498854875.1,286047118.9,N
1498854895.8,286047118.2,N
1498854915.7,286047121.0,N
1498854935.5,286047121.1,N
1498854955.3,286047118.2,N
1498854975.2,286047117.0,N
1498854995.9,286047118.7,N
1498855015.7,286047118.5,N
1498855035.6,286047120.8,N
1498855055.4,286047118.8,N
1498855075.2,286047120.6,N
1498855095.1,286047121.0,N
1498855096.0,286047121.0,N
1498855115.8,286047120.0,N
1498855135.6,286047120.4,N
1498855155.4,286047121.0,N
1498855175.3,286047118.2,N
1498855195.1,286047116.6,N
1498855215.8,286047116.6,N
1498855235.7,286047116.6,N
1498855255.5,286047117.0,N
1498855275.3,286047116.9,N
1498855295.2,286047116.9,N
1498855315.9,286047119.2,N
1498855335.7,286047119.5,N
1498855355.6,286047116.9,N
1498855375.4,286047117.1,N
1498855395.2,286047118.4,N
1498855415.0,286047120.5,N
1498855416.0,286047120.5,N
1498855435.8,286047119.7,N
1498855455.6,286047120.2,N
1498855475.4,286047120.2,N
1498855495.3,286047120.0,N
1498855515.1,286047120.3,N
1498855535.8,286047120.2,N
1498855555.7,286047123.9,N
1498855575.5,286047125.8,N
1498855595.3,286047125.3,N
1498855615.2,286047125.8,N
1498855635.9,286047125.7,N
1498855655.7,286047125.2,N
1498855675.6,286047124.9,N
1498855695.4,286047125.0,N
1498855715.2,286047125.4,N
1498855735.0,286047125.8,N
1498855736.0,286047125.8,N
1498855755.8,286047125.7,N
1498855775.6,286047126.0,N
1498855795.4,286047127.6,N
1498855815.3,286047125.7,N
1498855835.1,286047124.8,N
1498855855.8,286047124.7,N
1498855875.7,286047127.4,N
1498855895.5,286047126.3,N
1498855915.3,286047126.3,N
1498855935.2,286047128.7,N
1498855955.9,286047127.8,N
1498855975.7,286047128.0,N
1498855995.6,286047129.5,N
1498856015.4,286047129.9,N
1498856035.2,286047129.3,N
1498856055.1,286047129.3,N
1498856056.0,286047129.3,N
1498856075.8,286047130.2,N
1498856095.6,286047130.0,N
1498856115.4,286047129.5,N
1498856135.3,286047130.9,N
1498856155.1,286047133.6,N
1498856175.8,286047133.4,N
1498856195.7,286047133.4,N
1498856215.5,286047133.4,N
1498856235.3,286047131.6,N
1498856255.2,286047131.4,N
1498856275.9,286047133.6,N
1498856295.7,286047129.7,N
1498856315.6,286047129.8,N
1498856335.4,286047131.3,N
1498856355.2,286047132.9,N
1498856375.1,286047135.5,N
1498856376.0,286047135.5,N
1498856395.8,286047133.0,N
